Location: Bois de la Silve
(44.4667°N, 6.7833°E)
Time: 20:59:53
(UTC+00:00)

SL-08 R/B - Pass Details

Date: 14 July 2020
Orbit: 674 x 739 km, 98.4° (Epoch: 14 August)

Event Time Altitude Azimuth Distance (km) Brightness Sun altitude
Exits shadow 03:01:16 - 195° (SSW) 2,367 5.5 -9.4°
Reaches altitude 10° 03:01:50 10° 198° (SSW) 2,158 5.3 -9.3°
Maximum altitude 03:06:09 34° 263° (W) 1,151 4.0 -8.7°
Drops below altitude 10° 03:10:34 10° 329° (NNW) 2,212 6.0 -8.2°
Sets 03:13:03 0° 338° (NNW) 3,147 7.0 -7.8°
